�������l�o���
Date,Time,MP-1(��Sv/h),MP-2(��Sv/h),MP-3(��Sv/h),MP-4(��Sv/h),MP-5(��Sv/h),MP-6(��Sv/h),MP-7(��Sv/h),MP-8(��Sv/h),����,����(m/s),���J
2019/12/31,00:00,0.694,0.990,0.670,1.253,0.872,0.403,0.705,0.669,��쓌,3.4,��
2019/12/31,00:10,0.694,0.988,0.671,1.252,0.874,0.402,0.704,0.669,��쓌,3.2,��
2019/12/31,00:20,0.692,0.989,0.669,1.252,0.874,0.403,0.705,0.669,��,2.5,��
2019/12/31,00:30,0.693,0.988,0.672,1.253,0.873,0.403,0.705,0.668,��쐼,2.9,��
2019/12/31,00:40,0.692,0.987,0.671,1.252,0.872,0.403,0.706,0.670,��,3.8,��
2019/12/31,00:50,0.693,0.989,0.672,1.253,0.873,0.402,0.704,0.667,��,4.9,��
2019/12/31,01:00,0.694,0.988,0.671,1.253,0.873,0.402,0.704,0.670,�쐼,5.5,��
2019/12/31,01:10,0.693,0.989,0.673,1.253,0.871,0.402,0.705,0.670,�쐼,5.3,��
2019/12/31,01:20,0.693,0.989,0.670,1.252,0.873,0.401,0.705,0.669,�쐼,3.8,��
2019/12/31,01:30,0.693,0.989,0.669,1.252,0.874,0.401,0.703,0.668,�쐼,3.2,��
2019/12/31,01:40,0.693,0.990,0.672,1.251,0.874,0.403,0.703,0.670,�쐼,2.1,��
2019/12/31,01:50,0.695,0.989,0.672,1.251,0.871,0.402,0.703,0.670,��,0.9,��
2019/12/31,02:00,0.695,0.989,0.670,1.251,0.872,0.403,0.705,0.670,-,CALM,��
2019/12/31,02:10,0.695,0.989,0.670,1.252,0.874,0.400,0.705,0.669,��쐼,1.6,��
2019/12/31,02:20,0.693,0.987,0.670,1.252,0.873,0.403,0.705,0.670,�쐼,2.7,��
2019/12/31,02:30,0.695,0.989,0.670,1.253,0.873,0.403,0.704,0.668,�쐼,2.4,��
2019/12/31,02:40,0.694,0.989,0.670,1.251,0.872,0.402,0.706,0.669,�쐼,2.5,��
2019/12/31,02:50,0.694,0.987,0.669,1.252,0.874,0.403,0.705,0.670,��,4.3,��
2019/12/31,03:00,0.693,0.989,0.670,1.252,0.874,0.403,0.706,0.671,��,3.9,��
2019/12/31,03:10,0.693,0.987,0.670,1.251,0.873,0.402,0.704,0.669,��,5.2,��
2019/12/31,03:20,0.694,0.989,0.671,1.251,0.872,0.402,0.704,0.670,���쐼,6.3,��
2019/12/31,03:30,0.694,0.988,0.671,1.252,0.872,0.402,0.704,0.671,���쐼,4.7,��
2019/12/31,03:40,0.695,0.988,0.671,1.253,0.873,0.402,0.704,0.669,��,6.3,��
2019/12/31,03:50,0.695,0.989,0.670,1.253,0.871,0.402,0.706,0.670,��,5.5,��
2019/12/31,04:00,0.695,0.989,0.671,1.253,0.871,0.402,0.705,0.671,��,3.3,��
2019/12/31,04:10,0.696,0.989,0.672,1.252,0.873,0.402,0.705,0.671,���k��,0.9,��
2019/12/31,04:20,0.695,0.989,0.674,1.252,0.872,0.403,0.706,0.669,�k��,0.9,��
2019/12/31,04:30,0.695,0.990,0.672,1.253,0.872,0.403,0.705,0.670,��,1.6,��
2019/12/31,04:40,0.694,0.990,0.673,1.251,0.872,0.403,0.706,0.670,���쓌,2.1,��
2019/12/31,04:50,0.695,0.990,0.671,1.254,0.872,0.403,0.707,0.671,��쓌,0.9,��
2019/12/31,05:00,0.696,0.990,0.671,1.251,0.872,0.404,0.705,0.669,�쓌,2.4,��
2019/12/31,05:10,0.695,0.987,0.674,1.253,0.872,0.404,0.705,0.670,��쓌,2.9,��
2019/12/31,05:20,0.695,0.988,0.671,1.251,0.874,0.403,0.707,0.670,��쓌,3.2,��
2019/12/31,05:30,0.695,0.988,0.671,1.252,0.873,0.403,0.706,0.669,��,4.1,��
2019/12/31,05:40,0.694,0.987,0.672,1.253,0.874,0.403,0.706,0.669,��쐼,4.9,��
2019/12/31,05:50,0.694,0.988,0.669,1.255,0.871,0.403,0.705,0.669,��쐼,5.8,��
2019/12/31,06:00,0.696,0.989,0.671,1.251,0.875,0.403,0.707,0.672,��쐼,4.7,��
2019/12/31,06:10,0.696,0.990,0.671,1.254,0.871,0.404,0.706,0.668,��쐼,4.7,��
2019/12/31,06:20,0.697,0.989,0.670,1.253,0.874,0.404,0.707,0.670,��쐼,3.6,��
2019/12/31,06:30,0.696,0.987,0.671,1.252,0.872,0.404,0.706,0.671,��쐼,3.4,��
2019/12/31,06:40,0.694,0.990,0.672,1.253,0.872,0.404,0.705,0.671,�쐼,3.5,��
2019/12/31,06:50,0.695,0.989,0.672,1.251,0.873,0.404,0.705,0.670,�쐼,4.2,��
2019/12/31,07:00,0.694,0.989,0.670,1.254,0.871,0.403,0.706,0.670,�쐼,4.3,��
2019/12/31,07:10,0.696,0.988,0.670,1.256,0.871,0.403,0.705,0.668,�쐼,3.6,��
2019/12/31,07:20,0.695,0.989,0.671,1.254,0.871,0.403,0.705,0.670,��쐼,3.5,��
2019/12/31,07:30,0.695,0.987,0.671,1.255,0.872,0.405,0.706,0.671,��쐼,3.8,��
2019/12/31,07:40,0.697,0.989,0.672,1.252,0.873,0.404,0.708,0.670,�쐼,3.4,��
2019/12/31,07:50,0.697,0.988,0.672,1.253,0.874,0.404,0.707,0.669,�쐼,3.1,��
2019/12/31,08:00,0.698,0.988,0.673,1.254,0.875,0.403,0.707,0.669,�쐼,3.8,��
2019/12/31,08:10,0.695,0.988,0.670,1.253,0.873,0.402,0.707,0.670,�쐼,3.6,��
2019/12/31,08:20,0.697,0.991,0.672,1.255,0.873,0.404,0.706,0.670,���쐼,3.8,��
2019/12/31,08:30,0.698,0.990,0.673,1.254,0.873,0.404,0.708,0.670,���쐼,5.2,��
2019/12/31,08:40,0.697,0.991,0.672,1.256,0.874,0.404,0.706,0.670,���쐼,4.2,��
2019/12/31,08:50,0.697,0.992,0.673,1.257,0.871,0.404,0.708,0.672,���쐼,4.9,��
2019/12/31,09:00,0.697,0.993,0.674,1.253,0.874,0.404,0.709,0.670,�쐼,4.9,��
2019/12/31,09:10,0.701,0.993,0.674,1.254,0.875,0.404,0.709,0.671,�쐼,3.6,��
2019/12/31,09:20,0.698,0.992,0.673,1.255,0.876,0.404,0.708,0.671,�쐼,2.2,��
2019/12/31,09:30,0.699,0.993,0.675,1.257,0.874,0.405,0.709,0.671,�쐼,2.2,��
2019/12/31,09:40,0.697,0.992,0.675,1.256,0.877,0.404,0.707,0.670,�쐼,1.9,��
2019/12/31,09:50,0.699,0.990,0.675,1.257,0.874,0.405,0.705,0.672,���쐼,1.0,��
2019/12/31,10:00,0.699,0.992,0.675,1.257,0.876,0.407,0.707,0.671,���k��,1.1,��
2019/12/31,10:10,0.699,0.992,0.675,1.256,0.878,0.407,0.706,0.672,���쐼,1.4,��
2019/12/31,10:20,0.700,0.993,0.676,1.258,0.879,0.406,0.708,0.673,��,3.5,��
2019/12/31,10:30,0.699,0.993,0.676,1.257,0.877,0.405,0.707,0.675,��,4.3,��
2019/12/31,10:40,0.700,0.993,0.677,1.257,0.877,0.405,0.707,0.671,��,4.7,��
2019/12/31,10:50,0.699,0.996,0.676,1.255,0.877,0.404,0.708,0.672,��,8.9,��
2019/12/31,11:00,0.699,0.995,0.676,1.258,0.876,0.403,0.709,0.676,��,10.8,��
2019/12/31,11:10,0.700,0.995,0.677,1.258,0.877,0.403,0.708,0.673,��,11.2,��
2019/12/31,11:20,0.697,0.998,0.675,1.260,0.881,0.404,0.710,0.674,��,10.1,��
2019/12/31,11:30,0.701,0.996,0.676,1.258,0.880,0.403,0.709,0.673,��,10.5,��
2019/12/31,11:40,0.699,0.996,0.675,1.260,0.880,0.405,0.708,0.673,��,9.6,��
2019/12/31,11:50,0.700,0.996,0.676,1.260,0.879,0.405,0.710,0.673,��,11.5,��
2019/12/31,12:00,0.701,0.999,0.676,1.265,0.879,0.404,0.707,0.672,��,11.3,��
2019/12/31,12:10,0.699,0.999,0.679,1.262,0.881,0.407,0.706,0.671,��,12.5,��
2019/12/31,12:20,0.700,0.997,0.676,1.262,0.881,0.404,0.707,0.672,��,9.6,��
2019/12/31,12:30,0.701,0.999,0.676,1.259,0.881,0.408,0.710,0.672,��,11.3,��
2019/12/31,12:40,0.701,0.999,0.677,1.262,0.879,0.406,0.707,0.672,��,8.8,��
2019/12/31,12:50,0.701,0.999,0.678,1.262,0.881,0.408,0.709,0.670,��,7.7,��
2019/12/31,13:00,0.700,0.998,0.677,1.264,0.880,0.407,0.708,0.669,���k��,11.8,��
2019/12/31,13:10,0.700,0.999,0.676,1.263,0.880,0.408,0.708,0.671,�k��,11.3,��
2019/12/31,13:20,0.700,1.001,0.676,1.263,0.882,0.408,0.707,0.671,�k��,10.1,�L
2019/12/31,13:30,0.699,1.000,0.676,1.265,0.880,0.407,0.708,0.670,���k��,10.2,��
2019/12/31,13:40,0.700,1.001,0.676,1.262,0.883,0.407,0.707,0.669,�k��,13.5,�L
2019/12/31,13:50,0.699,1.001,0.676,1.262,0.883,0.407,0.706,0.671,�k��,11.3,��
2019/12/31,14:00,0.700,1.003,0.678,1.265,0.884,0.406,0.710,0.669,���k��,7.2,��
2019/12/31,14:10,0.701,1.000,0.679,1.263,0.884,0.407,0.708,0.670,���k��,15.1,��
2019/12/31,14:20,0.701,1.003,0.680,1.267,0.886,0.406,0.708,0.670,���k��,13.2,��
2019/12/31,14:30,0.700,1.003,0.682,1.267,0.885,0.405,0.710,0.669,���k��,11.0,��
2019/12/31,14:40,0.700,1.004,0.678,1.265,0.883,0.406,0.709,0.671,���k��,13.6,��
2019/12/31,14:50,0.700,1.005,0.678,1.266,0.885,0.405,0.708,0.673,���k��,13.0,��
2019/12/31,15:00,0.701,1.006,0.680,1.267,0.885,0.406,0.708,0.671,���k��,12.6,��
2019/12/31,15:10,0.701,1.006,0.679,1.267,0.885,0.406,0.709,0.672,�k��,15.4,��
2019/12/31,15:20,0.702,1.005,0.679,1.267,0.887,0.404,0.708,0.674,���k��,14.6,��
2019/12/31,15:30,0.702,1.006,0.680,1.267,0.886,0.406,0.709,0.674,�k��,17.2,��
2019/12/31,15:40,0.700,1.009,0.678,1.268,0.885,0.406,0.711,0.673,���k��,14.1,��
2019/12/31,15:50,0.703,1.007,0.679,1.269,0.886,0.406,0.709,0.674,���k��,11.9,��
2019/12/31,16:00,0.701,1.008,0.679,1.268,0.885,0.407,0.710,0.676,���k��,12.9,��
2019/12/31,16:10,0.701,1.007,0.678,1.269,0.883,0.406,0.710,0.674,���k��,9.6,��
2019/12/31,16:20,0.702,1.007,0.678,1.267,0.885,0.404,0.710,0.674,�k��,9.4,��
2019/12/31,16:30,0.701,1.007,0.679,1.267,0.884,0.405,0.709,0.674,�k��,9.3,��
2019/12/31,16:40,0.700,1.007,0.680,1.270,0.884,0.404,0.709,0.672,�k��,9.9,��
2019/12/31,16:50,0.699,1.006,0.677,1.265,0.885,0.403,0.708,0.673,�k��,9.4,��
2019/12/31,17:00,0.700,1.007,0.678,1.269,0.885,0.403,0.710,0.674,�k��,8.2,��
2019/12/31,17:10,0.699,1.007,0.678,1.267,0.887,0.403,0.710,0.674,�k��,7.4,��
2019/12/31,17:20,0.700,1.008,0.678,1.266,0.884,0.402,0.709,0.673,�k��,6.3,��
2019/12/31,17:30,0.702,1.007,0.676,1.266,0.887,0.402,0.709,0.673,�k�k��,7.2,��
2019/12/31,17:40,0.699,1.007,0.677,1.265,0.885,0.403,0.709,0.674,�k�k��,6.6,��
2019/12/31,17:50,0.700,1.008,0.677,1.265,0.885,0.403,0.710,0.673,�k��,6.1,��
2019/12/31,18:00,0.700,1.008,0.677,1.267,0.887,0.404,0.710,0.674,�k�k��,8.8,��
2019/12/31,18:10,0.698,1.008,0.676,1.264,0.884,0.403,0.711,0.673,�k��,7.4,��
2019/12/31,18:20,0.700,1.009,0.679,1.265,0.883,0.403,0.709,0.674,�k��,6.3,��
2019/12/31,18:30,0.699,1.005,0.678,1.267,0.884,0.403,0.708,0.673,�k��,5.5,��
2019/12/31,18:40,0.700,1.006,0.676,1.267,0.886,0.403,0.711,0.673,�k�k��,7.4,��
2019/12/31,18:50,0.699,1.003,0.677,1.266,0.886,0.404,0.709,0.673,�k�k��,7.1,��
2019/12/31,19:00,0.698,1.006,0.677,1.266,0.885,0.402,0.709,0.674,�k��,5.2,��
2019/12/31,19:10,0.699,1.006,0.677,1.267,0.883,0.403,0.709,0.672,�k,3.5,��
2019/12/31,19:20,0.698,1.007,0.677,1.264,0.884,0.402,0.708,0.672,�k�k��,5.6,��
2019/12/31,19:30,0.699,1.009,0.678,1.266,0.885,0.401,0.708,0.672,�k��,6.0,��
2019/12/31,19:40,0.696,1.005,0.676,1.264,0.885,0.403,0.707,0.674,�k��,8.2,��
2019/12/31,19:50,0.697,1.004,0.675,1.264,0.884,0.400,0.707,0.672,�k��,6.9,��
2019/12/31,20:00,0.697,1.002,0.675,1.263,0.883,0.403,0.708,0.672,�k�k��,7.1,��
2019/12/31,20:10,0.697,1.003,0.675,1.267,0.885,0.401,0.706,0.673,�k�k��,8.5,��
2019/12/31,20:20,0.697,1.006,0.675,1.265,0.884,0.400,0.706,0.671,�k�k��,6.7,��
2019/12/31,20:30,0.699,1.006,0.677,1.265,0.888,0.403,0.709,0.673,�k�k��,7.8,��
2019/12/31,20:40,0.697,1.006,0.677,1.266,0.885,0.401,0.708,0.672,�k�k��,7.4,��
2019/12/31,20:50,0.697,1.004,0.676,1.267,0.883,0.399,0.708,0.671,�k�k��,6.4,��
2019/12/31,21:00,0.697,1.004,0.677,1.266,0.884,0.401,0.708,0.672,�k��,8.5,��
2019/12/31,21:10,0.697,1.005,0.676,1.265,0.884,0.401,0.707,0.672,�k��,7.8,��
2019/12/31,21:20,0.698,1.004,0.676,1.268,0.885,0.401,0.708,0.672,�k��,8.0,��
2019/12/31,21:30,0.698,1.004,0.674,1.266,0.884,0.401,0.709,0.672,�k�k��,6.9,��
2019/12/31,21:40,0.696,1.007,0.677,1.265,0.885,0.401,0.707,0.671,�k��,7.1,��
2019/12/31,21:50,0.697,1.004,0.675,1.267,0.884,0.400,0.709,0.672,�k��,7.2,��
2019/12/31,22:00,0.696,1.003,0.678,1.267,0.883,0.400,0.708,0.671,�k�k��,8.2,��
2019/12/31,22:10,0.697,1.007,0.677,1.266,0.884,0.401,0.707,0.671,�k�k��,8.0,��
2019/12/31,22:20,0.698,1.005,0.677,1.265,0.883,0.401,0.707,0.673,�k��,7.8,��
2019/12/31,22:30,0.697,1.005,0.676,1.267,0.882,0.401,0.706,0.672,�k�k��,6.3,��
2019/12/31,22:40,0.697,1.006,0.677,1.267,0.885,0.401,0.708,0.672,�k��,6.4,��
2019/12/31,22:50,0.697,1.003,0.677,1.267,0.883,0.401,0.708,0.672,�k��,6.6,��
2019/12/31,23:00,0.697,1.006,0.678,1.266,0.885,0.400,0.709,0.672,�k�k��,5.5,��
2019/12/31,23:10,0.697,1.005,0.677,1.266,0.884,0.402,0.708,0.672,�k�k��,3.8,��
2019/12/31,23:20,0.697,1.004,0.679,1.269,0.884,0.400,0.707,0.672,�k�k��,3.4,��
2019/12/31,23:30,0.698,1.005,0.678,1.265,0.882,0.401,0.708,0.672,�k��,2.6,��
2019/12/31,23:40,0.696,1.003,0.675,1.266,0.886,0.401,0.706,0.673,�k�k��,3.2,��
2019/12/31,23:50,0.699,1.004,0.676,1.265,0.882,0.400,0.706,0.672,�k,2.1,��
